Location: Chrząstowo
(52.0654°N, 17.1290°E)
Time: 15:58:39
(UTC+01:00)

Envisat - Pass Details

Date: 13 December 2019
Orbit: 764 x 766 km, 98.1° (Epoch: 23 January)

Event Time Altitude Azimuth Distance (km) Brightness Sun altitude
Rises 07:05:13 0° 13° (NNE) 3,248 6.1 -6.7°
Reaches altitude 10° 07:07:32 10° 12° (NNE) 2,317 5.3 -6.4°
Maximum altitude 07:12:38 77° 287° (WNW) 790 3.0 -5.7°
Drops below altitude 10° 07:17:42 10° 202° (SSW) 2,299 5.6 -5.1°
Sets 07:19:59 0° 201° (SSW) 3,220 6.4 -4.8°
